Stanton, MN

7:56 AM CDT on May 26, 2018 (GMT -0500)
Stanton

Weather History for KSYN - March, 2013

Change the Weather History Date:

Saturday, March 9, 2013

  Actual Average (KLVN) Record (KLVN)
Temperature  
Mean Temperature 36 °F -  
Max Temperature 38 °F 36 °F 55 °F (2015)
Min Temperature 34 °F 19 °F -13 °F (1951)
Degree Days  
Heating Degree Days 29    
Moisture  
Dew Point 33 °F    
Average Humidity 88    
Maximum Humidity 93    
Minimum Humidity 71    
Precipitation  
Precipitation 0.63 in - - ()
Sea Level Pressure  
Sea Level Pressure 29.82 in    
Wind  
Wind Speed 11 mph (SSE)    
Max Wind Speed 18 mph    
Max Gust Speed 26 mph    
Visibility 4 miles    
Events Fog , Rain    
Averages and records for this station are not official NWS values.
T = Trace of Precipitation, MM = Missing Value Source: NWS Daily Summary

Daily Weather History Graph

Daily Weather History Graph

Search for Another Location

Airport or City:

Astronomy

Mar. 09, 2013 Rise Set
Actual Time 6:34 AM CST 6:10 PM CST
Civil Twilight 6:05 AM CST 6:39 PM CST
Nautical Twilight 5:32 AM CST 7:13 PM CST
Astronomical Twilight 4:58 AM CST 7:47 PM CST
Moon 5:03 AM CST (3/9) 4:10 PM CST (3/9)
Length of Visible Light 12h 34m
Length of Day
11h 36m
Waning Crescent, 5% of the Moon is Illuminated
Mar 9
Waning Crescent
Mar 11
New
Mar 19
First Quarter
Mar 27
Full
Apr 2
Last Quarter

Hourly Weather History & Observations

Time (CST) Temp. Windchill Dew Point Humidity Pressure Visibility Wind Dir Wind Speed Gust Speed Precip Events Conditions
12:12 AM 36.7 °F 30.5 °F 28.0 °F 71% 30.07 in 10.0 mi SSE 8.1 mph 17.3 mph N/A   Overcast
12:33 AM 36.7 °F 28.9 °F 28.4 °F 72% 30.07 in 10.0 mi SSE 11.5 mph 16.1 mph N/A   Overcast
12:53 AM 36.5 °F 29.7 °F 29.8 °F 77% 30.07 in 5.0 mi SSE 9.2 mph 16.1 mph N/A Rain Light Rain
1:12 AM 35.6 °F 28.6 °F 30.9 °F 83% 30.07 in 4.0 mi SSE 9.2 mph - 0.02 in Rain Rain
1:33 AM 35.6 °F 28.6 °F 31.1 °F 84% 30.06 in 4.0 mi SSE 9.2 mph - 0.03 in Rain Rain
1:53 AM 35.6 °F 28.0 °F 31.6 °F 85% 30.05 in 3.0 mi SE 10.4 mph 16.1 mph 0.06 in Rain Rain
2:12 AM 35.4 °F 26.0 °F 32.0 °F 87% 30.03 in 3.0 mi SSE 15.0 mph - 0.02 in Rain Light Rain
2:33 AM 35.6 °F 27.1 °F 32.0 °F 87% 30.01 in 4.0 mi SSE 12.7 mph 18.4 mph 0.05 in Rain Light Rain
2:53 AM 35.6 °F 26.6 °F 32.0 °F 87% 30.00 in 3.0 mi SSE 13.8 mph 17.3 mph 0.08 in Rain Rain
3:12 AM 35.8 °F 27.8 °F 32.2 °F 87% 29.98 in 4.0 mi SSE 11.5 mph 21.9 mph 0.01 in Rain Rain
3:33 AM 35.8 °F 27.3 °F 32.4 °F 87% 29.97 in 3.0 mi SE 12.7 mph 19.6 mph 0.04 in Rain Rain
3:53 AM 35.8 °F 26.9 °F 32.4 °F 87% 29.95 in 4.0 mi SE 13.8 mph 21.9 mph 0.07 in Rain Light Rain
4:12 AM 35.8 °F 26.9 °F 32.4 °F 87% 29.95 in 4.0 mi SE 13.8 mph 19.6 mph 0.01 in Rain Light Rain
4:33 AM 35.8 °F 27.8 °F 32.5 °F 88% 29.94 in 3.0 mi SE 11.5 mph 17.3 mph 0.04 in Rain Rain
4:53 AM 35.8 °F 27.3 °F 32.7 °F 89% 29.93 in 4.0 mi SE 12.7 mph 21.9 mph 0.07 in Rain Light Rain
5:12 AM 36.0 °F 27.1 °F 32.7 °F 88% 29.92 in 3.0 mi SE 13.8 mph 20.7 mph 0.02 in Rain Rain
5:33 AM 36.0 °F 27.1 °F 32.9 °F 89% 29.92 in 4.0 mi SE 13.8 mph 21.9 mph 0.04 in Rain Light Rain
5:53 AM 36.1 °F 25.9 °F 32.9 °F 88% 29.91 in 5.0 mi SSE 18.4 mph 23.0 mph 0.05 in Rain Rain
6:12 AM 36.1 °F 26.2 °F 32.7 °F 87% 29.91 in 5.0 mi SSE 17.3 mph 21.9 mph 0.01 in   Drizzle
6:33 AM 36.5 °F 29.2 °F 32.9 °F 87% 29.90 in 5.0 mi SSE 10.4 mph 19.6 mph 0.01 in   Light Drizzle
6:53 AM 36.5 °F 27.4 °F 32.9 °F 87% 29.90 in 5.0 mi SSE 15.0 mph 21.9 mph 0.01 in   Overcast
7:12 AM 36.5 °F 27.8 °F 32.9 °F 87% 29.88 in 4.0 mi SSE 13.8 mph 19.6 mph N/A   Overcast
7:33 AM 36.5 °F 26.3 °F 32.9 °F 87% 29.87 in 4.0 mi SSE 18.4 mph 23.0 mph N/A   Overcast
7:53 AM 36.5 °F 27.8 °F 32.9 °F 87% 29.87 in 4.0 mi SSE 13.8 mph - N/A   Overcast
8:12 AM 36.7 °F 27.6 °F 32.9 °F 86% 29.86 in 3.0 mi SSE 15.0 mph 26.5 mph N/A Rain Light Rain
8:33 AM 36.7 °F 26.6 °F 33.3 °F 87% 29.85 in 4.0 mi SSE 18.4 mph 24.2 mph N/A   Overcast
8:53 AM 37.0 °F 27.0 °F 33.3 °F 86% 29.83 in 7.0 mi SSE 18.4 mph 25.3 mph N/A   Overcast
9:12 AM 37.4 °F 27.8 °F 33.3 °F 85% 29.82 in 7.0 mi SSE 17.3 mph 26.5 mph N/A   Overcast
9:33 AM 37.4 °F 27.8 °F 33.1 °F 84% 29.81 in 7.0 mi SSE 17.3 mph 23.0 mph N/A   Overcast
9:53 AM 37.6 °F 28.4 °F 33.1 °F 84% 29.82 in 7.0 mi South 16.1 mph 24.2 mph N/A   Overcast
10:12 AM 37.6 °F 28.4 °F 32.9 °F 83% 29.82 in 7.0 mi South 16.1 mph 24.2 mph N/A   Overcast
10:33 AM 37.4 °F 28.2 °F 33.1 °F 84% 29.81 in 7.0 mi SSE 16.1 mph 23.0 mph N/A   Overcast
10:53 AM 37.4 °F 28.5 °F 33.1 °F 84% 29.80 in 7.0 mi SSE 15.0 mph 19.6 mph N/A   Light Drizzle
11:13 AM 37.4 °F 27.8 °F 33.3 °F 85% 29.78 in 7.0 mi SSE 17.3 mph 21.9 mph N/A   Light Drizzle
11:32 AM 37.4 °F 28.9 °F 33.3 °F 85% 29.78 in 10.0 mi South 13.8 mph 19.6 mph N/A Rain Light Rain
11:53 AM 37.8 °F 28.3 °F 33.8 °F 86% 29.77 in 7.0 mi SSE 17.3 mph 24.2 mph N/A Rain Rain
12:13 PM 37.6 °F 28.8 °F 33.8 °F 86% 29.76 in 4.0 mi SSE 15.0 mph - 0.01 in Rain Rain
12:32 PM 37.6 °F 31.0 °F 34.0 °F 87% 29.76 in 7.0 mi SSE 9.2 mph - 0.01 in Rain Light Rain
12:53 PM 37.8 °F 31.3 °F 34.2 °F 87% 29.76 in 7.0 mi South 9.2 mph - 0.01 in Rain Rain
1:13 PM 37.6 °F 31.6 °F 34.2 °F 87% 29.76 in 2.5 mi South 8.1 mph - 0.02 in Rain Rain
1:32 PM 37.6 °F 32.3 °F 34.5 °F 89% 29.74 in 4.0 mi SSE 6.9 mph - 0.04 in Rain Light Rain
1:53 PM 37.8 °F 31.8 °F 34.7 °F 89% 29.71 in 3.0 mi SSE 8.1 mph - 0.07 in Rain Rain
2:13 PM 37.9 °F 30.5 °F 34.7 °F 88% 29.70 in 2.0 mi SSE 11.5 mph 19.6 mph 0.04 in Rain Rain
2:32 PM 37.9 °F 30.0 °F 34.7 °F 88% 29.70 in 3.0 mi SSE 12.7 mph - 0.08 in Rain Light Rain
2:53 PM 38.1 °F 31.2 °F 34.5 °F 87% 29.70 in 5.0 mi South 10.4 mph - 0.10 in Rain Light Rain
3:13 PM 37.6 °F 31.6 °F 34.5 °F 89% 29.69 in 4.0 mi SSE 8.1 mph - 0.01 in Rain Rain
3:32 PM 37.8 °F 32.5 °F 34.5 °F 88% 29.70 in 7.0 mi South 6.9 mph - 0.02 in   Drizzle
3:53 PM 37.4 °F 32.1 °F 34.2 °F 88% 29.70 in 2.5 mi South 6.9 mph - 0.03 in Rain Rain
4:13 PM 37.4 °F 31.4 °F 34.2 °F 88% 29.70 in 2.5 mi South 8.1 mph - 0.01 in Rain Rain
4:32 PM 37.2 °F 31.9 °F 34.2 °F 89% 29.70 in 5.0 mi SSE 6.9 mph - 0.02 in Rain Rain
4:53 PM 37.0 °F 31.0 °F 34.0 °F 89% 29.69 in 4.0 mi South 8.1 mph - 0.02 in Rain Light Rain
5:13 PM 36.9 °F 30.7 °F 34.0 °F 89% 29.70 in 4.0 mi South 8.1 mph - 0.01 in   Drizzle
5:32 PM 36.5 °F 29.7 °F 33.8 °F 90% 29.69 in 3.0 mi South 9.2 mph - 0.01 in   Heavy Drizzle
5:53 PM 36.5 °F 30.3 °F 33.8 °F 90% 29.69 in 4.0 mi South 8.1 mph - 0.03 in Rain Rain
6:13 PM 36.7 °F 31.2 °F 34.0 °F 90% 29.69 in 7.0 mi South 6.9 mph - N/A   Drizzle
6:32 PM 36.5 °F 31.8 °F 33.8 °F 90% 29.68 in 7.0 mi South 5.8 mph - 0.01 in Rain Light Rain
6:53 PM 36.5 °F 30.3 °F 34.0 °F 91% 29.70 in 5.0 mi South 8.1 mph - 0.02 in Rain Rain
7:13 PM 36.5 °F 31.8 °F 33.8 °F 90% 29.70 in 7.0 mi South 5.8 mph - N/A   Overcast
7:32 PM 36.1 °F 33.5 °F 33.8 °F 91% 29.71 in 2.5 mi SSW 3.5 mph - N/A Rain Light Rain
7:53 PM 35.1 °F 32.2 °F 32.9 °F 92% 29.71 in 2.5 mi SSW 3.5 mph - N/A   Drizzle
8:13 PM 35.2 °F - 33.1 °F 92% 29.72 in 1.8 mi Calm Calm - N/A Rain Light Rain
8:33 PM 35.1 °F - 33.1 °F 92% 29.72 in 1.5 mi Calm Calm - N/A   Drizzle
8:52 PM 34.7 °F - 32.5 °F 92% 29.72 in 1.5 mi Calm Calm - N/A   Overcast
9:13 PM 34.7 °F - 32.9 °F 93% 29.73 in 1.2 mi Calm Calm - N/A   Overcast
9:33 PM 34.9 °F - 32.9 °F 92% 29.73 in 0.8 mi Calm Calm - N/A   Overcast
9:52 PM 35.1 °F - 33.3 °F 93% 29.74 in 0.8 mi Calm Calm - 0.01 in   Overcast
10:13 PM 35.2 °F 32.4 °F 33.4 °F 93% 29.75 in 0.5 mi SW 3.5 mph - N/A Fog Fog
10:33 PM 34.2 °F - 32.4 °F 93% 29.76 in 0.5 mi Calm Calm - N/A Fog Fog
10:52 PM 34.5 °F - 32.7 °F 93% 29.76 in 0.5 mi Calm Calm - N/A Fog Fog
11:13 PM 34.2 °F - 32.4 °F 93% 29.75 in 0.5 mi Calm Calm - N/A Fog Fog
11:33 PM 34.3 °F 31.4 °F 32.5 °F 93% 29.75 in 0.5 mi WNW 3.5 mph - N/A Fog Fog
11:52 PM 34.7 °F 31.8 °F 32.9 °F 93% 29.75 in 0.8 mi NW 3.5 mph - N/A Rain Light Rain